Location: Oso Ridge
(35.0450°N, 108.0864°W)
Time: 18:54:06
(UTC-06:00)

Amateur Radio Satellites - All Passes

Search period start: 25 June 2016 18:24
Search period end: 26 June 2016 18:24
Location: Oso Ridge, 35.0450°N, 108.0864°W

Satellite Date Start Highest point End Downlink Frequencies (MHz)
Time Altitude Azimuth
BRITE-PL 25 Jun 18:26:31 18:31:47 73° 76° (ENE) 18:36:39 437.365/2234.400
SRMSAT 25 Jun 18:34:46 18:36:43 12° 166° (SSE) 18:38:41 437.500
MOZHAYETS 4 25 Jun 18:36:12 18:37:31 11° 296° (WNW) 18:38:50
HO-68 25 Jun 18:48:40 18:52:27 15° 57° (ENE) 18:56:14 435.675
ISS 25 Jun 18:51:20 18:52:31 12° 234° (SW) 18:53:41 145.825
DOVE 4 25 Jun 18:58:12 19:01:56 27° 72° (ENE) 19:05:33 437.250
CUTE-I 25 Jun 18:58:27 19:03:45 74° 258° (WSW) 19:09:07 437.470
LilacSat-2 25 Jun 19:12:58 19:16:31 40° 261° (W) 19:20:06 437.200
JUGNU 25 Jun 19:13:01 19:16:55 18° 182° (S) 19:20:49 437.505
GOMX 1 25 Jun 19:17:47 19:22:36 72° 258° (WSW) 19:27:07 467.674
CUTE 1.7 + AOD 2 25 Jun 19:19:04 19:19:47 10° 65° (ENE) 19:20:31 437.475
DANDE 25 Jun 19:26:09 19:30:02 21° 68° (ENE) 19:33:10 436.750
NOAA 18 25 Jun 19:31:08 19:35:56 32° 262° (W) 19:40:48 137.9125
GONETS M04 25 Jun 19:33:25 19:42:09 87° 271° (W) 19:50:55
CUSAT 1 25 Jun 19:34:01 19:37:48 72° 80° (E) 19:40:46 437.405
NOAA 15 25 Jun 19:39:25 19:43:19 21° 265° (W) 19:47:12 137.62
Cosmos 2499 25 Jun 19:48:52 19:56:56 79° 93° (E) 20:05:38 435.465 / 435.565
STRAND 1 25 Jun 19:52:36 19:57:16 34° 98° (E) 20:01:53 437.568
CUBESAT XI-V 25 Jun 19:53:45 19:56:10 14° 294° (WNW) 19:58:33 437.345
Cubesat XI-IV 25 Jun 20:05:13 20:08:37 17° 267° (W) 20:12:02 437.490
BRITE-PL 25 Jun 20:09:40 20:10:31 10° 268° (W) 20:11:21 437.365/2234.400
AAUSAT CUBESAT 2 25 Jun 20:15:21 20:18:17 19° 69° (ENE) 20:21:14 437.432
CINEMA 3 25 Jun 20:17:23 20:21:30 60° 76° (ENE) 20:25:35 145.822/145.860
SRMSAT 25 Jun 20:21:21 20:25:08 17° 176° (S) 20:28:55 437.500
AUBIESAT-1 25 Jun 20:24:47 20:26:43 15° 65° (ENE) 20:28:37 437.475
CANX-2 25 Jun 20:30:07 20:34:23 89° 85° (E) 20:38:42 2200.000
RS-15 25 Jun 20:30:48 20:41:36 34° 42° (NE) 20:52:18 29.354- 29.394
HO-68 25 Jun 20:32:00 20:39:09 90° 74° (ENE) 20:46:22 435.675
DOVE 4 25 Jun 20:36:14 20:39:36 21° 264° (W) 20:42:51 437.250
CUBEBUG 2 25 Jun 20:37:05 20:40:34 27° 71° (ENE) 20:44:06 437.445
COMPASS 1 25 Jun 20:44:49 20:48:55 54° 75° (ENE) 20:53:03 437.405
CUTE 1.7 + AOD 2 25 Jun 20:50:52 20:55:04 59° 260° (W) 20:59:18 437.475
M-CUBED/EXP-1 PRIME 25 Jun 20:59:48 21:03:04 61° 71° (ENE) 21:06:18 437.505
SEEDS 25 Jun 21:00:49 21:05:00 64° 259° (W) 21:09:15 437.485
JUGNU 25 Jun 21:02:35 21:05:11 13° 192° (SSW) 21:07:47 437.505
DANDE 25 Jun 21:08:55 21:12:45 23° 275° (W) 21:15:52 436.750
PRISM 25 Jun 21:09:08 21:12:41 28° 98° (E) 21:16:12 437.425
ZACube-1 25 Jun 21:17:18 21:21:04 34° 72° (ENE) 21:24:55 437.345
AO-85 25 Jun 21:26:57 21:30:41 19° 108° (ESE) 21:34:24 145.980
UWE-3 25 Jun 21:30:35 21:34:42 82° 79° (E) 21:38:56 435.000/436.395/437.385
STRAND 1 25 Jun 21:32:06 21:36:13 25° 292° (WNW) 21:40:19 437.568
Oscar 11 25 Jun 21:33:00 21:37:15 61° 76° (ENE) 21:41:33 145.826/435.025
GONETS M04 25 Jun 21:35:37 21:40:11 15° 295° (WNW) 21:44:46
FUNcube-1 25 Jun 21:36:21 21:40:24 55° 75° (ENE) 21:44:33 145.935
Cosmos 2499 25 Jun 21:45:35 21:51:04 19° 293° (WNW) 21:56:47 435.465 / 435.565
AAUSAT CUBESAT 2 25 Jun 21:49:52 21:53:32 29° 263° (W) 21:57:14 437.432
AUBIESAT-1 25 Jun 21:58:22 22:01:02 22° 258° (WSW) 22:03:41 437.475
SRMSAT 25 Jun 22:09:58 22:13:35 17° 186° (S) 22:17:11 437.500
CUBEBUG 2 25 Jun 22:14:11 22:17:10 19° 265° (W) 22:20:12 437.445
HO-68 25 Jun 22:24:40 22:27:37 13° 269° (W) 22:30:35 435.675
DELFI C3 25 Jun 22:27:39 22:31:38 65° 259° (W) 22:35:40 145.870
TIGRISAT 25 Jun 22:32:25 22:35:17 16° 94° (E) 22:38:09 435.000
UNISAT 6 25 Jun 22:36:05 22:39:23 19° 94° (E) 22:42:41 437.425
RS-15 25 Jun 22:42:58 22:55:19 77° 245° (WSW) 23:07:25 29.354- 29.394
PRISM 25 Jun 22:44:57 22:47:46 18° 292° (WNW) 22:50:34 437.425
ZACube-1 25 Jun 22:54:59 22:57:27 15° 267° (W) 22:59:57 437.345
HUMSAT D 25 Jun 22:57:41 23:01:47 67° 259° (W) 23:05:58 437.325/437.525
AO-85 25 Jun 23:05:31 23:10:49 53° 303° (WNW) 23:16:00 145.980
VELOX 1 25 Jun 23:12:08 23:14:59 17° 67° (ENE) 23:17:50 145.980
CUBEBUG 1 25 Jun 23:12:15 23:15:13 18° 68° (ENE) 23:18:12 437.445
ANTELSAT 25 Jun 23:15:00 23:19:32 52° 100° (E) 23:24:07 437.575/2403.000
QB50P1 25 Jun 23:32:33 23:33:24 10° 92° (E) 23:34:16 145.935-145.965
ESTCUBE 1 25 Jun 23:33:49 23:38:12 49° 74° (ENE) 23:42:35 437.505/2401.250
POPSAT HIP 1 25 Jun 23:34:59 23:36:20 11° 92° (E) 23:37:41 437.405
QB50P2 25 Jun 23:45:11 23:47:59 17° 94° (E) 23:50:47 145.880/145.840
POLYITAN 1 25 Jun 23:47:44 23:50:37 17° 95° (E) 23:53:29 437.675
AISAT 25 Jun 23:50:57 23:55:13 50° 74° (ENE) 23:59:29 437.250
YUBILEINY 25 Jun 23:51:23 23:58:57 31° 73° (ENE) 00:06:27 435.215
DUCHIFAT 1 25 Jun 23:51:47 23:54:32 17° 94° (E) 23:57:17 145.980
50 SAT 25 Jun 23:56:45 00:00:24 60° 76° (ENE) 00:04:05 437.505
TIGRISAT 26 Jun 00:07:43 00:12:05 42° 287° (WNW) 00:16:29 435.000
UKube-1 26 Jun 00:08:08 00:12:14 45° 73° (ENE) 00:16:22 .
UNISAT 6 26 Jun 00:11:54 00:16:08 36° 288° (WNW) 00:20:24 437.425
SPROUT 26 Jun 00:15:55 00:19:48 35° 72° (ENE) 00:23:40 437.525
DX 1 26 Jun 00:21:54 00:26:16 87° 77° (ENE) 00:30:38 434.975-435.025
VELOX 1 26 Jun 00:47:03 00:51:08 37° 261° (W) 00:55:14 145.980
CUBEBUG 1 26 Jun 00:47:16 00:51:14 33° 262° (W) 00:55:12 437.445
ANTELSAT 26 Jun 00:53:23 00:55:47 14° 294° (WNW) 00:58:10 437.575/2403.000
Cosmos 2491 26 Jun 00:55:12 01:03:24 46° 89° (E) 01:11:34 435.465 / 435.565
BUGSAT 1 26 Jun 00:59:32 01:03:29 47° 100° (E) 01:07:28 437.445
RS-15 26 Jun 00:59:40 01:05:41 15° 263° (W) 01:11:41 29.354- 29.394
Cosmos 2504 26 Jun 01:00:22 01:07:33 27° 71° (ENE) 01:14:28 435.465 / 435.565
JAS-2 26 Jun 01:02:30 01:06:58 24° 94° (E) 01:11:11 435.910
NANOSAT C BR1 26 Jun 01:04:04 01:08:14 57° 286° (WNW) 01:12:24 145.865
QB50P1 26 Jun 01:05:17 01:09:26 52° 285° (WNW) 01:13:34 145.935-145.965
POPSAT HIP 1 26 Jun 01:08:14 01:12:20 49° 286° (WNW) 01:16:26 437.405
ESTCUBE 1 26 Jun 01:13:14 01:15:14 13° 268° (W) 01:17:15 437.505/2401.250
QB50P2 26 Jun 01:20:00 01:23:49 33° 288° (WNW) 01:27:39 145.880/145.840
POLYITAN 1 26 Jun 01:22:38 01:26:27 32° 288° (WNW) 01:30:15 437.675
DUCHIFAT 1 26 Jun 01:26:28 01:30:15 33° 288° (WNW) 01:34:03 145.980
Oscar 19 26 Jun 01:26:35 01:29:05 14° 92° (E) 01:31:34 437.125/150
AISAT 26 Jun 01:30:15 01:31:55 12° 267° (W) 01:33:34 437.250
UKube-1 26 Jun 01:46:38 01:48:28 12° 267° (W) 01:50:20 .
TISAT 1 26 Jun 01:47:06 01:51:15 76° 258° (WSW) 01:55:26 437.305
YUBILEINY 26 Jun 01:47:33 01:55:59 52° 270° (W) 02:04:23 435.215
SPROUT 26 Jun 01:53:16 01:55:49 15° 266° (W) 01:58:22 437.525
SO-50 26 Jun 02:10:09 02:14:47 68° 59° (ENE) 02:19:14 436.795
SWISSCUBE 26 Jun 02:23:56 02:28:33 51° 73° (ENE) 02:33:13 437.505
BEESAT 3 26 Jun 02:32:09 02:34:04 13° 109° (ESE) 02:36:00 437.485
BUGSAT 1 26 Jun 02:36:57 02:38:26 12° 293° (WNW) 02:39:55 437.445
O/OREOS (USA 219) 26 Jun 02:37:13 02:39:45 15° 99° (E) 02:42:17 437.305
PCSat 26 Jun 02:39:41 02:44:47 44° 111° (ESE) 02:49:56 145.827
JAS-2 26 Jun 02:47:06 02:52:09 34° 292° (WNW) 02:56:50 435.910
ITUPSAT 1 26 Jun 02:48:26 02:53:14 83° 75° (ENE) 02:58:03 437.325
BEESAT 26 Jun 02:49:25 02:54:11 87° 80° (E) 02:59:00 436.000
Cosmos 2491 26 Jun 02:52:34 03:00:18 34° 286° (WNW) 03:08:04 435.465 / 435.565
Cosmos 2504 26 Jun 02:52:44 03:01:26 61° 269° (W) 03:09:46 435.465 / 435.565
Gurwin Techsat 1B 26 Jun 02:56:49 03:01:58 49° 100° (E) 03:07:06 435.225
BEESAT 2 26 Jun 03:03:24 03:05:57 17° 110° (ESE) 03:08:31 435.950
Oscar 19 26 Jun 03:03:42 03:08:44 58° 286° (WNW) 03:13:44 437.125/150
ITAMSAT 1 26 Jun 03:20:10 03:24:35 27° 96° (E) 03:28:58 435.822/435.867
STARS 26 Jun 03:32:18 03:34:06 12° 65° (ENE) 03:35:53 437.465
AO-7 26 Jun 03:50:20 03:57:00 26° 96° (E) 04:03:38 29.400- 29.500
MOZHAYETS 4 26 Jun 03:54:52 03:59:10 41° 73° (ENE) 04:03:31
SWISSCUBE 26 Jun 04:04:12 04:06:36 14° 267° (W) 04:09:01 437.505
BEESAT 3 26 Jun 04:07:41 04:11:22 39° 303° (WNW) 04:15:05 437.485
O/OREOS (USA 219) 26 Jun 04:14:30 04:18:44 41° 294° (WNW) 04:23:00 437.305
AIST 1 26 Jun 04:20:19 04:23:19 18° 75° (ENE) 04:26:18
PCSat 26 Jun 04:24:06 04:28:21 23° 307° (NW) 04:32:38 145.827
KKS-1 26 Jun 04:25:32 04:29:56 74° 258° (WSW) 04:34:22 437.445
Gurwin Techsat 1B 26 Jun 04:37:55 04:41:30 19° 295° (WNW) 04:45:04 435.225
BEESAT 2 26 Jun 04:39:56 04:43:30 32° 304° (NW) 04:47:07 435.950
AIST 2 26 Jun 04:59:08 05:01:41 16° 109° (ESE) 05:04:14 435.215
ITAMSAT 1 26 Jun 04:59:26 05:03:59 31° 291° (WNW) 05:08:30 435.822/435.867
STARS 26 Jun 05:05:44 05:09:58 51° 260° (W) 05:14:13 437.465
CUBESAT XI-V 26 Jun 05:14:47 05:19:00 33° 72° (ENE) 05:23:13 437.345
MOZHAYETS 4 26 Jun 05:33:39 05:36:29 16° 267° (W) 05:39:19
AO-7 26 Jun 05:41:56 05:50:08 61° 292° (WNW) 05:58:18 29.400- 29.500
HORYU 2 26 Jun 05:45:17 05:49:38 47° 100° (E) 05:53:57 437.375
Cosmos 2499 26 Jun 05:45:24 05:52:16 25° 70° (ENE) 05:58:50 435.465 / 435.565
GONETS M04 26 Jun 05:48:05 05:56:09 40° 76° (ENE) 06:04:11
AIST 1 26 Jun 05:57:17 06:00:53 27° 270° (W) 06:04:29
NOAA 18 26 Jun 06:17:00 06:20:12 16° 93° (E) 06:23:24 137.9125
NOAA 15 26 Jun 06:17:42 06:21:29 20° 95° (E) 06:25:14 137.62
BRITE-PL 26 Jun 06:35:20 06:38:45 24° 96° (E) 06:42:11 437.365/2234.400
AIST 2 26 Jun 06:36:01 06:39:50 36° 304° (NW) 06:43:41 435.215
Cubesat XI-IV 26 Jun 06:44:11 06:48:40 26° 96° (E) 06:53:08 437.490
LilacSat-2 26 Jun 06:49:39 06:52:53 25° 96° (E) 06:56:06 437.200
CUSAT 1 26 Jun 06:49:46 06:54:26 17° 86° (E) 06:58:51 437.405
CUBESAT XI-V 26 Jun 06:52:54 06:56:23 20° 265° (W) 06:59:53 437.345
STRAND 1 26 Jun 07:05:17 07:09:54 35° 70° (ENE) 07:14:33 437.568
CUTE-I 26 Jun 07:18:49 07:24:09 59° 101° (E) 07:29:25 437.470
GOMX 1 26 Jun 07:22:39 07:26:35 38° 99° (E) 07:30:38 467.674
HORYU 2 26 Jun 07:23:23 07:25:44 14° 294° (WNW) 07:28:05 437.375
Cosmos 2499 26 Jun 07:37:22 07:46:00 64° 269° (W) 07:54:06 435.465 / 435.565
AO-7 26 Jun 07:38:55 07:41:11 11° 311° (NW) 07:43:28 29.400- 29.500
PHONESAT 2.4 26 Jun 07:40:23 07:43:13 35° 150° (SSE) 07:46:05 2401.200-2431.200
AO-85 26 Jun 07:41:08 07:45:31 55° 58° (ENE) 07:49:31 145.980
GONETS M04 26 Jun 07:44:59 07:52:49 39° 273° (W) 08:00:41
NOAA 18 26 Jun 07:55:43 08:01:10 59° 288° (WNW) 08:06:36 137.9125
NOAA 15 26 Jun 07:56:27 08:01:22 42° 289° (WNW) 08:06:16 137.62
PRISM 26 Jun 07:56:35 07:58:53 15° 67° (ENE) 08:01:11 437.425
HO-68 26 Jun 08:04:47 08:09:51 20° 94° (E) 08:14:53 435.675
BRITE-PL 26 Jun 08:14:03 08:17:08 20° 290° (WNW) 08:20:13 437.365/2234.400
CINEMA 3 26 Jun 08:15:23 08:18:41 19° 95° (E) 08:22:03 145.822/145.860
CANX-2 26 Jun 08:19:19 08:22:27 19° 94° (E) 08:25:32 2200.000
Cubesat XI-IV 26 Jun 08:23:55 08:28:42 33° 290° (WNW) 08:33:29 437.490
LilacSat-2 26 Jun 08:24:15 08:26:59 19° 290° (WNW) 08:29:43 437.200
DANDE 26 Jun 08:24:58 08:32:53 51° 92° (E) 08:40:42 436.750
CUSAT 1 26 Jun 08:27:53 08:35:56 83° 278° (W) 08:43:03 437.405
COMPASS 1 26 Jun 08:33:26 08:34:34 11° 92° (E) 08:35:41 437.405
DOVE 4 26 Jun 08:36:22 08:40:38 65° 284° (WNW) 08:45:08 437.250
CUTE 1.7 + AOD 2 26 Jun 08:39:21 08:43:05 29° 96° (E) 08:46:48 437.475
STRAND 1 26 Jun 08:45:05 08:49:05 23° 265° (W) 08:53:08 437.568
SEEDS 26 Jun 08:48:25 08:51:59 26° 96° (E) 08:55:31 437.485
CUTE-I 26 Jun 09:00:30 09:03:39 16° 296° (WNW) 09:06:47 437.470
GOMX 1 26 Jun 09:02:03 09:04:23 15° 292° (WNW) 09:06:44 467.674
PHONESAT 2.4 26 Jun 09:16:52 09:19:48 43° 345° (NNW) 09:22:46 2401.200-2431.200
UWE-3 26 Jun 09:23:42 09:27:17 22° 95° (E) 09:30:54 435.000/436.395/437.385
AO-85 26 Jun 09:24:44 09:25:15 10° 255° (WSW) 09:25:45 145.980
Oscar 11 26 Jun 09:24:58 09:27:21 14° 93° (E) 09:29:43 145.826/435.025
FUNcube-1 26 Jun 09:28:42 09:31:18 15° 93° (E) 09:33:53 145.935
PRISM 26 Jun 09:29:56 09:33:50 38° 261° (W) 09:37:44 437.425
UNISAT 6 26 Jun 09:34:19 09:35:13 11° 64° (ENE) 09:36:07 437.425
AAUSAT CUBESAT 2 26 Jun 09:34:49 09:38:54 51° 100° (E) 09:42:55 437.432
AUBIESAT-1 26 Jun 09:38:39 09:41:51 23° 102° (ESE) 09:45:13 437.475
ISS 26 Jun 09:50:13 09:53:28 79° 320° (NW) 09:56:44 145.825
HO-68 26 Jun 09:50:52 09:57:58 65° 289° (WNW) 10:05:04 435.675
CINEMA 3 26 Jun 09:51:44 09:55:49 34° 287° (WNW) 10:00:03 145.822/145.860
CANX-2 26 Jun 09:54:34 09:58:17 29° 288° (WNW) 10:01:56 2200.000
CUBEBUG 2 26 Jun 10:06:14 10:10:50 80° 282° (WNW) 10:15:32 437.445
COMPASS 1 26 Jun 10:06:19 10:10:22 48° 286° (WNW) 10:14:22 437.405
DANDE 26 Jun 10:08:28 10:15:51 34° 286° (WNW) 10:23:04 436.750
DELFI C3 26 Jun 10:09:22 10:12:16 19° 95° (E) 10:15:10 145.870
ANTELSAT 26 Jun 10:11:07 10:14:47 29° 71° (ENE) 10:18:32 437.575/2403.000
CUSAT 1 26 Jun 10:14:46 10:18:35 14° 291° (WNW) 10:22:13 437.405
M-CUBED/EXP-1 PRIME 26 Jun 10:15:01 10:18:54 84° 107° (ESE) 10:23:07 437.505
CUTE 1.7 + AOD 2 26 Jun 10:15:37 10:18:42 20° 291° (WNW) 10:21:47 437.475
SEEDS 26 Jun 10:24:17 10:27:31 21° 290° (WNW) 10:30:43 437.485
ZACube-1 26 Jun 10:44:09 10:48:40 68° 284° (WNW) 10:53:13 437.345
HUMSAT D 26 Jun 10:44:45 10:48:18 24° 96° (E) 10:51:50 437.325/437.525
RS-15 26 Jun 10:53:35 11:01:22 22° 100° (E) 11:09:22 29.354- 29.394
PHONESAT 2.4 26 Jun 10:54:07 10:56:49 27° 1° (N) 10:59:32 2401.200-2431.200
Oscar 11 26 Jun 10:59:32 11:03:38 40° 287° (WNW) 11:07:41 145.826/435.025
UWE-3 26 Jun 10:59:43 11:03:41 30° 288° (WNW) 11:07:43 435.000/436.395/437.385
TIGRISAT 26 Jun 11:02:52 11:07:05 71° 258° (WSW) 11:11:26 435.000
FUNcube-1 26 Jun 11:03:23 11:07:40 43° 286° (WNW) 11:11:59 145.935
UNISAT 6 26 Jun 11:07:10 11:11:21 58° 260° (W) 11:15:39 437.425
Cosmos 2491 26 Jun 11:10:55 11:16:30 18° 67° (ENE) 11:22:04 435.465 / 435.565
AAUSAT CUBESAT 2 26 Jun 11:12:40 11:13:53 11° 294° (WNW) 11:15:04 437.432
AUBIESAT-1 26 Jun 11:13:03 11:16:13 24° 293° (WNW) 11:19:31 437.475
JAS-2 26 Jun 11:13:48 11:16:03 12° 59° (ENE) 11:18:15 435.910
ISS 26 Jun 11:29:12 11:30:22 11° 335° (NNW) 11:31:32 145.825
ESTCUBE 1 26 Jun 11:31:19 11:33:29 13° 93° (E) 11:35:39 437.505/2401.250
PCSat 26 Jun 11:31:28 11:35:21 20° 51° (NE) 11:39:14 145.827
DELFI C3 26 Jun 11:43:47 11:47:05 25° 289° (WNW) 11:50:19 145.870
HO-68 26 Jun 11:43:48 11:44:18 10° 306° (NW) 11:44:48 435.675
AISAT 26 Jun 11:46:25 11:48:05 12° 93° (E) 11:49:45 437.250
BUGSAT 1 26 Jun 11:46:51 11:49:52 21° 70° (ENE) 11:52:54 437.445
ANTELSAT 26 Jun 11:48:23 11:51:30 20° 265° (W) 11:54:39 437.575/2403.000
NANOSAT C BR1 26 Jun 11:52:37 11:56:45 66° 76° (ENE) 12:00:54 145.865
QB50P1 26 Jun 11:54:06 11:58:15 73° 76° (ENE) 12:02:26 145.935-145.965
POPSAT HIP 1 26 Jun 11:57:03 12:01:13 78° 77° (ENE) 12:05:25 437.405
QB50P2 26 Jun 12:08:43 12:12:54 69° 260° (W) 12:17:05 145.880/145.840
POLYITAN 1 26 Jun 12:11:21 12:15:30 67° 258° (WSW) 12:19:42 437.675
DX 1 26 Jun 12:14:16 12:17:20 19° 95° (E) 12:20:23 434.975-435.025
DUCHIFAT 1 26 Jun 12:14:27 12:18:35 71° 259° (WSW) 12:22:45 145.980
HUMSAT D 26 Jun 12:20:20 12:23:47 24° 290° (WNW) 12:27:13 437.325/437.525
BEESAT 3 26 Jun 12:27:44 12:31:26 37° 57° (ENE) 12:35:07 437.485
PHONESAT 2.4 26 Jun 12:30:45 12:33:47 54° 17° (NNE) 12:36:49 2401.200-2431.200
CUBEBUG 1 26 Jun 12:38:34 12:42:48 54° 100° (E) 12:47:01 437.445
VELOX 1 26 Jun 12:39:58 12:44:15 50° 100° (E) 12:48:30 145.980
Oscar 19 26 Jun 12:40:27 12:43:25 16° 65° (ENE) 12:46:24 437.125/150
YUBILEINY 26 Jun 12:48:09 12:55:57 39° 87° (E) 13:03:47 435.215
O/OREOS (USA 219) 26 Jun 12:49:13 12:52:17 18° 60° (ENE) 12:55:21 437.305
JAS-2 26 Jun 12:52:15 12:59:58 69° 74° (ENE) 13:07:08 435.910
BEESAT 2 26 Jun 13:00:29 13:04:22 48° 58° (ENE) 13:08:12 435.950
RS-15 26 Jun 13:00:51 13:12:11 84° 299° (WNW) 13:24:13 29.354- 29.394
50 SAT 26 Jun 13:02:28 13:06:09 64° 284° (WNW) 13:09:46 437.505
Cosmos 2491 26 Jun 13:05:34 13:14:17 81° 266° (W) 13:22:59 435.465 / 435.565
ESTCUBE 1 26 Jun 13:06:12 13:10:30 46° 287° (WNW) 13:14:47 437.505/2401.250
PCSat 26 Jun 13:13:47 13:19:04 54° 248° (WSW) 13:24:18 145.827
AISAT 26 Jun 13:20:33 13:24:47 49° 286° (WNW) 13:29:01 437.250
BUGSAT 1 26 Jun 13:21:50 13:25:06 24° 264° (W) 13:28:23 437.445
UKube-1 26 Jun 13:34:07 13:38:21 59° 286° (WNW) 13:42:34 .
TISAT 1 26 Jun 13:34:55 13:38:05 20° 96° (E) 13:41:14 437.305
Cosmos 2504 26 Jun 13:35:42 13:41:21 21° 81° (E) 13:47:14 435.465 / 435.565
SPROUT 26 Jun 13:40:21 13:44:38 73° 284° (WNW) 13:48:54 437.525
DX 1 26 Jun 13:49:43 13:53:32 31° 289° (WNW) 13:57:20 434.975-435.025
BEESAT 3 26 Jun 14:06:38 14:08:45 14° 251° (WSW) 14:10:52 437.485
PHONESAT 2.4 26 Jun 14:07:38 14:10:17 26° 212° (SSW) 14:12:55 2401.200-2431.200
Gurwin Techsat 1B 26 Jun 14:14:35 14:19:46 56° 73° (ENE) 14:24:58 435.225
Oscar 19 26 Jun 14:17:11 14:22:14 55° 259° (W) 14:27:18 437.125/150
CUBEBUG 1 26 Jun 14:17:11 14:18:35 11° 295° (WNW) 14:19:58 437.445
VELOX 1 26 Jun 14:18:20 14:20:14 13° 295° (WNW) 14:22:08 145.980
O/OREOS (USA 219) 26 Jun 14:27:41 14:31:47 36° 256° (WSW) 14:35:53 437.305
SWISSCUBE 26 Jun 14:28:32 14:31:38 17° 94° (E) 14:34:42 437.505
ITAMSAT 1 26 Jun 14:34:58 14:39:28 31° 69° (ENE) 14:44:00 435.822/435.867
JAS-2 26 Jun 14:39:42 14:45:13 21° 267° (W) 14:50:34 435.910
BEESAT 2 26 Jun 14:40:30 14:41:44 11° 252° (WSW) 14:42:57 435.950
YUBILEINY 26 Jun 14:44:36 14:52:35 40° 284° (WNW) 15:00:41 435.215
AO-7 26 Jun 14:46:11 14:52:55 28° 60° (ENE) 14:59:40 29.400- 29.500
ITUPSAT 1 26 Jun 14:52:43 14:56:49 27° 97° (E) 15:00:52 437.325
BEESAT 26 Jun 14:53:15 14:57:23 28° 97° (E) 15:01:29 436.000
AIST 2 26 Jun 14:59:59 15:04:02 49° 58° (ENE) 15:08:03 435.215
Cosmos 2491 26 Jun 15:06:39 15:09:37 12° 283° (WNW) 15:12:37 435.465 / 435.565
TISAT 1 26 Jun 15:10:09 15:13:41 27° 289° (WNW) 15:17:12 437.305
RS-15 26 Jun 15:17:32 15:26:43 26° 325° (NW) 15:36:17 29.354- 29.394
Cosmos 2504 26 Jun 15:25:54 15:33:46 66° 279° (W) 15:42:17 435.465 / 435.565
MOZHAYETS 4 26 Jun 15:55:00 15:56:58 12° 92° (E) 15:58:55
Gurwin Techsat 1B 26 Jun 15:57:05 16:00:01 15° 268° (W) 16:02:58 435.225
SWISSCUBE 26 Jun 16:05:04 16:09:34 41° 288° (WNW) 16:14:02 437.505
ITAMSAT 1 26 Jun 16:14:29 16:18:51 27° 263° (W) 16:23:17 435.822/435.867
KKS-1 26 Jun 16:20:06 16:23:51 26° 97° (E) 16:27:35 437.445
SO-50 26 Jun 16:20:42 16:25:23 49° 115° (ESE) 16:30:06 436.795
ISS 26 Jun 16:20:46 16:23:36 26° 35° (NE) 16:26:25 145.825
ITUPSAT 1 26 Jun 16:30:32 16:34:31 26° 291° (WNW) 16:38:28 437.325
BEESAT 26 Jun 16:31:07 16:35:01 25° 291° (WNW) 16:38:54 436.000
AO-7 26 Jun 16:36:56 16:45:06 60° 257° (WSW) 16:53:22 29.400- 29.500
HORYU 2 26 Jun 16:40:21 16:44:10 29° 70° (ENE) 16:48:00 437.375
AIST 2 26 Jun 16:40:29 16:42:02 12° 252° (WSW) 16:43:35 435.215
AIST 1 26 Jun 16:47:27 16:49:27 13° 86° (E) 16:51:27
STARS 26 Jun 16:58:20 17:02:22 35° 99° (E) 17:06:23 437.465
JUGNU 26 Jun 17:09:51 17:13:30 17° 173° (S) 17:17:09 437.505
MOZHAYETS 4 26 Jun 17:29:53 17:34:24 52° 286° (WNW) 17:38:53
NOAA 15 26 Jun 17:34:33 17:38:45 24° 67° (ENE) 17:42:56 137.62
NOAA 18 26 Jun 17:39:48 17:43:58 23° 66° (ENE) 17:48:08 137.9125
RS-15 26 Jun 17:40:26 17:45:47 13° 1° (N) 17:51:11 29.354- 29.394
BRITE-PL 26 Jun 17:42:36 17:46:47 25° 71° (ENE) 17:50:45 437.365/2234.400
KKS-1 26 Jun 17:56:44 18:00:16 23° 291° (WNW) 18:03:48 437.445
ISS 26 Jun 17:57:15 17:59:57 24° 230° (SW) 18:02:40 145.825
SO-50 26 Jun 18:02:34 18:06:07 20° 311° (NW) 18:09:40 436.795
Cubesat XI-IV 26 Jun 18:02:59 18:07:39 32° 69° (ENE) 18:12:21 437.490
HORYU 2 26 Jun 18:17:23 18:20:42 21° 265° (W) 18:24:02 437.375
